[[{"header":{"parameterUnit":"m.s-1","parameterCategory":1,"la1":30.2991,"la2":30.254,"lo1":-89.0895,"lo2":-89.0444,"dy":0.0017,"dx":0.0017,"nx":28,"ny":28,"refTime":"2025-03-10T09:00:00:Z","depth":0,"parameterNumber":2,"parameterNumberName":"U-component_of_WINDS"},"data":[0,0,0,0,0,0,0,0,0,0,0,0,0,0,0,0,0,0,0,0,0,0,0,0,0,0,0,0,0,0,0,0,0,0,0,0,0,0,0,0,0,0,0,0,0,0,0,0,0,0,0,0,0,0,0,0,0,0,1.2061,1.2062,0,1.2203,1.2205,1.2207,1.2208,1.2206,1.2205,1.2203,1.2352,1.2358,1.2363,0,0,0,0,0,0,0,0,0,0,0,0,0,1.179,1.1795,1.206,1.2062,1.2064,1.2203,1.2205,1.2207,1.2208,1.2206,1.2204,1.2202,1.235,1.2357,1.2364,0,0,0,0,0,0,0,0,0,0,0,0,0,1.1918,1.1797,1.206,1.2081,1.2085,1.2203,1.2205,1.2208,1.2209,1.2206,1.2203,1.2201,1.2348,1.2356,1.2365,1.2472,0,0,1.2391,1.2395,0,0,0,0,0,0,0,0,1.1911,1.1928,1.2076,1.208,1.2084,1.2185,1.2165,1.2296,1.221,1.2162,1.2203,1.22,1.2299,1.2311,1.2344,1.2479,1.2486,1.2392,1.2397,1.24,1.2403,0,0,0,0,0,0,0,1.1902,1.1922,1.2117,1.2079,1.2083,1.2084,1.2099,1.219,1.2244,1.2166,1.2166,1.2183,1.2301,1.2336,1.2348,1.2488,1.2391,1.2399,1.2404,1.2407,1.2717,1.272,0,0,0,0,0,0,1.1889,1.1914,1.2113,1.2121,1.1989,1.2091,1.2108,1.2155,1.2243,1.2254,1.2185,1.2183,1.2323,1.2338,1.2353,1.2485,1.24,1.2408,1.2413,1.2714,1.2718,1.2721,0,0,0,0,0,0,1.1883,1.1906,1.2107,1.2018,1.2044,1.2099,1.2152,1.216,1.2195,1.2258,1.2268,1.2211,1.2321,1.2341,1.2442,1.249,1.2412,1.242,1.271,1.2715,1.272,1.2748,0,0,0,0,0,0,1.1875,1.1904,1.1945,1.2019,1.2048,1.2193,1.2155,1.2165,1.221,1.2207,1.2285,1.2295,1.2321,1.2429,1.2451,1.25,1.2427,1.2706,1.2713,1.2718,1.2743,1.2753,1.2762,0,0,0,0,0,1.1865,1.1948,1.1947,1.1971,1.2101,1.2196,1.2213,1.224,1.2213,1.2255,1.2295,1.2293,1.2481,1.244,1.2464,1.2516,1.2704,1.2711,1.2718,1.2739,1.2751,1.2761,0,0,0,0,0,0,1.188,1.1958,1.1958,1.2067,1.2125,1.2196,1.225,1.2252,1.2319,1.2314,1.2345,1.2363,1.2463,1.25,1.2453,1.2624,1.2589,1.2601,1.2597,1.2609,1.2618,1.2608,1.2434,0,0,0,0,0,1.1895,1.1965,1.203,1.2121,1.2149,1.2194,1.2237,1.2252,1.2313,1.2338,1.2385,1.2446,1.2518,1.2566,1.2636,1.2748,1.2765,1.2796,1.2805,1.2812,1.2823,1.2885,1.2899,1.2744,1.2744,1.2744,0,0,1.1929,1.1981,1.2023,1.2125,1.2171,1.2243,1.2215,1.2293,1.2347,1.235,1.2448,1.2485,1.2554,1.2661,1.2711,1.2695,1.2869,1.2821,1.2826,1.2833,1.2893,1.2908,1.2921,1.2749,1.2748,1.2747,0,0,1.2028,1.2073,1.2153,1.22,1.227,1.2299,1.2318,1.2389,1.2413,1.2511,1.2515,1.258,1.2704,1.2753,1.2795,1.291,1.291,1.2932,1.2981,1.304,1.3053,1.3064,1.3105,1.312,1.2942,1.2942,1.2942,0,1.2061,1.217,1.2194,1.2272,1.2317,1.2321,1.2403,1.2447,1.2537,1.2568,1.2548,1.2703,1.275,1.2869,1.2896,1.2929,1.2953,1.2924,1.3049,1.306,1.3071,1.3111,1.3126,1.2944,1.2944,1.2944,1.2943,0,1.2207,1.2282,1.2338,1.2424,1.2474,1.2554,1.2591,1.2639,1.265,1.2681,1.2781,1.2837,1.2919,1.2947,1.2959,1.3068,1.3055,1.3042,1.3007,1.3087,1.3125,1.3141,1.2947,1.2946,1.2946,1.2945,0,0,1.2321,1.2417,1.2438,1.2476,1.2553,1.2612,1.2691,1.2769,1.281,1.2871,1.2939,1.3043,1.3031,1.3077,1.3094,1.3146,1.3234,1.3127,1.3129,1.3145,1.3357,1.3368,1.3385,1.3234,1.3237,1.3239,1.3352,0,1.2428,1.2568,1.2592,1.2715,1.2785,1.2789,1.2858,1.2913,1.2944,1.3008,1.3042,1.3116,1.3093,1.3121,1.3173,1.3212,1.3277,1.3205,1.3298,1.3301,1.3282,1.3405,1.3416,1.352,1.3367,1.3369,1.3371,0,1.2572,1.2636,1.2765,1.2832,1.2862,1.2923,1.2997,1.3058,1.312,1.3138,1.3189,1.32,1.3283,1.3243,1.3357,1.3307,1.3347,1.3371,1.3376,1.3387,1.3342,1.342,1.3553,1.3569,1.3395,1.3393,1.3391,0,1.2643,1.2761,1.2854,1.2886,1.2966,1.3009,1.3044,1.3103,1.3148,1.3213,1.3242,1.3316,1.3356,1.3413,1.3443,1.3411,1.3555,1.3518,1.3574,1.3573,1.3605,1.3603,1.3748,1.3629,1.3629,1.3628,1.3628,0,1.2761,1.284,1.2886,1.2943,1.3032,1.3059,1.3146,1.318,1.3233,1.3297,1.3305,1.3365,1.34,1.3466,1.349,1.3581,1.3599,1.3617,1.3623,1.3617,1.3615,1.3645,1.3639,1.3632,1.3632,1.3631,1.363,0,1.2856,1.2889,1.2991,1.3057,1.3076,1.3138,1.3195,1.3251,1.3281,1.3362,1.3382,1.343,1.3507,1.3542,1.3638,1.3654,1.3758,1.3758,1.3737,1.3739,1.3793,1.3788,1.3963,1.3988,1.3851,1.3853,1.3854,0,1.2929,1.299,1.3062,1.3105,1.3142,1.3211,1.3257,1.3285,1.3332,1.3406,1.3453,1.353,1.3594,1.3717,1.376,1.3833,1.3836,1.3892,1.3847,1.3839,1.3838,1.3834,1.3841,1.3901,1.3902,1.3903,1.3904,0,1.3057,1.307,1.3135,1.3206,1.326,1.3318,1.3374,1.3409,1.3446,1.3499,1.3577,1.3626,1.3723,1.38,1.3875,1.3912,1.3915,1.3917,1.3935,1.393,1.3916,1.3925,1.376,1.3914,1.3913,1.3912,1.3912,1.3911,1.3144,1.3198,1.3257,1.3329,1.3374,1.3426,1.3482,1.3518,1.3583,1.3664,1.3676,1.376,1.3819,1.3921,1.396,1.4026,1.4013,1.4037,1.4044,1.405,1.4053,1.3904,1.404,1.404,1.4039,1.4039,1.4039,0,1.3273,1.331,1.3376,1.3454,1.3511,1.3506,1.3568,1.3616,1.3689,1.3744,1.3805,1.3895,1.3969,1.4017,1.4092,1.4136,1.4139,1.4155,1.4153,1.4161,1.406,1.4039,1.4151,1.4151,1.4151,1.4151,1.4151,1.4151,1.3346,1.3437,1.3457,1.3571,1.3608,1.3689,1.3725,1.3773,1.3817,1.3916,1.3977,1.4008,1.406,1.4138,1.4206,1.4218,1.4246,1.4262,1.4274,1.418,1.4168,1.4157,1.4137,1.4268,1.4268,1.4369,1.437,1.4371]},{"header":{"parameterUnit":"m.s-1","parameterCategory":1,"la1":30.2991,"la2":30.254,"lo1":-89.0895,"lo2":-89.0444,"dy":0.0017,"dx":0.0017,"nx":28,"ny":28,"refTime":"2025-03-10T09:00:00:Z","depth":0,"parameterNumber":3,"parameterNumberName":"V-component_of_WINDS"},"data":[0,0,0,0,0,0,0,0,0,0,0,0,0,0,0,0,0,0,0,0,0,0,0,0,0,0,0,0,0,0,0,0,0,0,0,0,0,0,0,0,0,0,0,0,0,0,0,0,0,0,0,0,0,0,0,0,0,0,3.8398,3.8398,0,3.8435,3.8435,3.8436,3.8358,3.8356,3.8353,3.8351,3.8387,3.839,3.8393,0,0,0,0,0,0,0,0,0,0,0,0,0,3.8257,3.826,3.8398,3.8398,3.8399,3.8435,3.8435,3.8436,3.8359,3.8356,3.8353,3.835,3.8386,3.839,3.8394,0,0,0,0,0,0,0,0,0,0,0,0,0,3.8308,3.8261,3.8398,3.8365,3.8362,3.8435,3.8435,3.8436,3.8359,3.8356,3.8352,3.8348,3.8385,3.8389,3.8394,3.85,0,0,3.8409,3.8412,0,0,0,0,0,0,0,0,3.8305,3.8314,3.8369,3.8367,3.8364,3.8388,3.8399,3.8457,3.836,3.836,3.8351,3.8346,3.839,3.8395,3.841,3.8502,3.8503,3.841,3.8413,3.8415,3.8416,0,0,0,0,0,0,0,3.8302,3.8311,3.8412,3.837,3.8367,3.8347,3.835,3.8409,3.8396,3.836,3.8355,3.836,3.8388,3.8405,3.841,3.8504,3.841,3.8414,3.8417,3.8419,3.8683,3.8687,0,0,0,0,0,0,3.8303,3.8309,3.8411,3.8413,3.8325,3.8352,3.8356,3.8384,3.8395,3.8393,3.8363,3.8356,3.8398,3.8404,3.8411,3.8535,3.8415,3.842,3.8422,3.8679,3.8684,3.8688,0,0,0,0,0,0,3.83,3.8313,3.841,3.836,3.8371,3.8359,3.8391,3.8387,3.8404,3.8398,3.8394,3.8383,3.8396,3.8404,3.8478,3.8535,3.8422,3.8426,3.8674,3.8681,3.8686,3.8784,0,0,0,0,0,0,3.8297,3.8312,3.8353,3.8361,3.8374,3.8478,3.8395,3.839,3.8413,3.8404,3.8415,3.8414,3.8393,3.8471,3.8483,3.854,3.843,3.8669,3.8677,3.8684,3.8776,3.8793,3.8807,0,0,0,0,0,3.8292,3.8379,3.8356,3.8369,3.8425,3.8481,3.8488,3.8464,3.8418,3.8458,3.8454,3.8413,3.8527,3.848,3.8492,3.8551,3.8666,3.8675,3.8684,3.8769,3.8789,3.8807,0,0,0,0,0,0,3.8378,3.838,3.8354,3.8447,3.8465,3.8468,3.8518,3.8486,3.8517,3.8508,3.8475,3.8478,3.8559,3.8562,3.851,3.8653,3.8588,3.86,3.8648,3.8668,3.8684,3.8681,3.8434,0,0,0,0,0,3.8408,3.8455,3.8453,3.8535,3.8545,3.8531,3.8554,3.8534,3.8551,3.8557,3.8559,3.8576,3.8615,3.8642,3.8677,3.8776,3.8776,3.8822,3.8838,3.8851,3.8862,3.8912,3.8933,3.8718,3.8718,3.8718,0,0,3.847,3.8477,3.8508,3.8553,3.8564,3.8612,3.8537,3.8592,3.8626,3.8565,3.8636,3.8637,3.8654,3.874,3.8779,3.8746,3.8921,3.8862,3.8873,3.8877,3.8924,3.8944,3.8962,3.8724,3.8723,3.8722,0,0,3.8608,3.8618,3.8687,3.87,3.8718,3.8707,3.8724,3.8732,3.8731,3.8801,3.8756,3.8796,3.8865,3.8878,3.8894,3.9035,3.8999,3.9048,3.913,3.918,3.9197,3.9212,3.9262,3.928,3.9059,3.9059,3.9059,0,3.8682,3.8754,3.8726,3.8783,3.8804,3.8751,3.8819,3.8833,3.8862,3.8876,3.8839,3.8924,3.8931,3.902,3.9054,3.9069,3.9086,3.9047,3.9197,3.9212,3.9225,3.9272,3.9291,3.9065,3.9064,3.9063,3.9063,0,3.8844,3.8894,3.8947,3.8977,3.9003,3.9066,3.9047,3.9076,3.9053,3.9046,3.9117,3.9124,3.916,3.918,3.9158,3.9265,3.9244,3.9203,3.9136,3.9252,3.9295,3.9313,3.9073,3.9071,3.9069,3.9068,0,0,3.9038,3.9051,3.9071,3.9083,3.9098,3.9136,3.9195,3.9231,3.9257,3.9278,3.9326,3.9385,3.9347,3.9365,3.9343,3.9387,3.9498,3.934,3.934,3.9369,3.9615,3.9646,3.9667,3.9473,3.9477,3.9479,3.9613,0,3.9174,3.9278,3.9254,3.9355,3.94,3.935,3.9401,3.9416,3.9411,3.9447,3.9441,3.9483,3.9429,3.944,3.9481,3.9476,3.9547,3.9466,3.9517,3.952,3.9515,3.969,3.9723,3.9849,3.963,3.9633,3.9635,0,3.9347,3.9375,3.9481,3.9488,3.9506,3.9553,3.9583,3.9619,3.9633,3.9626,3.9646,3.9616,3.9673,3.9607,3.9685,3.963,3.965,3.965,3.9655,3.9658,3.9584,3.9698,3.9889,3.9908,3.9662,3.966,3.9658,0,3.9477,3.9541,3.9613,3.9625,3.9635,3.9669,3.9674,3.9685,3.9708,3.9733,3.9747,3.9779,3.9797,3.9822,3.9801,3.9754,3.9882,3.9814,3.9877,3.9878,3.9906,3.9905,4.0103,3.992,3.9919,3.9919,3.9918,0,3.9631,3.9698,3.9671,3.9715,3.9788,3.9759,3.9832,3.9831,3.9841,3.9883,3.9841,3.9882,3.9851,3.9888,3.9872,3.9939,3.9947,3.9942,3.9937,3.9946,3.9947,3.9958,3.9949,3.9924,3.9923,3.9922,3.9921,0,3.9789,3.9774,3.9849,3.9852,3.9854,3.9907,3.9909,3.9949,3.994,3.9994,4.0005,3.9991,4.0033,4.0014,4.0058,4.0046,4.0132,4.0115,4.0127,4.0123,4.0187,4.0181,4.0399,4.0426,4.0226,4.0228,4.023,0,3.9889,3.9939,3.9947,3.9973,3.9981,4.0023,4.0045,4.0018,4.0043,4.0063,4.0101,4.0139,4.0168,4.0236,4.0229,4.0262,4.0246,4.032,4.025,4.0257,4.0246,4.0243,4.0248,4.0334,4.0336,4.0338,4.0339,0,4.0067,4.0056,4.0091,4.0123,4.0151,4.0174,4.0194,4.0217,4.0191,4.0221,4.0263,4.0285,4.0329,4.0367,4.0396,4.04,4.0366,4.0361,4.0377,4.0387,4.0392,4.039,4.0165,4.0356,4.0355,4.0353,4.0353,4.0352,4.0198,4.024,4.0252,4.0291,4.0303,4.0323,4.036,4.0356,4.0391,4.0425,4.0406,4.0455,4.0467,4.0502,4.0511,4.0548,4.0519,4.0542,4.0548,4.0554,4.0563,4.0386,4.0553,4.0552,4.0552,4.0552,4.0551,0,4.0373,4.0378,4.0415,4.0444,4.0475,4.0439,4.0459,4.0487,4.0531,4.0545,4.0574,4.0622,4.0658,4.0654,4.0686,4.0717,4.0702,4.0726,4.0724,4.0725,4.0587,4.057,4.0738,4.0738,4.0738,4.0738,4.0738,4.0738,4.0468,4.0537,4.0528,4.0601,4.0605,4.0653,4.0667,4.0684,4.0695,4.0751,4.0781,4.0778,4.0784,4.0817,4.0848,4.0845,4.0859,4.089,4.0882,4.0753,4.0735,4.0717,4.0701,4.0893,4.0894,4.1016,4.1017,4.1018]}]]